Theta_e
327 326 324 322 320 319 320 320 321 323 323 323 323 323 324 324 324 325 325 324 324 323 323 323 323 323 324 325 326 326 327 326 324 321 318 320 323 320 319 317 311 310 311 311 310 311 311 313 313 312 314 316 317 318 319 319 319 320 321 319 316 319 320 319 320 317 317 319 318 317 318 318 317 316 315 315 315 317 317 317 319 318 322 324 326 333 338 337
327 325 323 322 320 319 320 321 322 323 323 323 323 323 323 324 324 325 325 324 324 323 323 322 322 323 323 325 325 326 326 323 319 316 319 323 322 318 318 318 313 309 310 309 309 311 311 312 314 312 313 315 317 318 319 319 318 320 321 319 318 321 320 319 320 317 317 318 318 317 318 318 318 316 315 316 317 317 316 317 318 318 321 323 326 333 337 336
327 325 323 321 320 319 320 322 323 323 323 323 323 322 323 323 323 324 324 324 323 323 322 321 321 321 322 323 324 324 322 318 316 316 321 322 320 317 316 318 313 308 309 310 309 310 310 312 314 312 312 315 316 317 319 318 318 319 321 320 320 322 319 317 318 316 315 317 318 317 317 318 318 317 315 316 318 317 316 316 317 318 320 322 327 334 336 335
326 324 323 322 320 320 321 322 323 323 323 323 323 322 322 323 323 323 323 323 323 322 321 320 320 319 319 320 321 320 318 319 320 320 322 320 319 317 316 317 312 309 309 309 310 310 310 312 314 313 313 314 316 317 318 318 318 319 319 319 320 320 318 316 316 315 314 315 318 317 317 317 317 316 316 316 317 316 316 316 317 316 318 323 327 333 334 335
326 324 323 322 319 320 321 322 323 323 323 322 322 322 322 322 322 322 322 322 322 321 320 319 318 318 319 318 318 317 318 325 324 319 322 321 319 318 317 315 312 310 309 309 310 310 311 312 313 312 313 314 315 316 317 317 317 318 317 317 318 318 318 315 314 313 313 315 317 317 317 317 316 315 316 316 315 316 315 315 317 316 317 322 327 333 335 336
325 324 323 321 319 320 321 322 323 323 322 322 322 322 321 321 321 321 322 322 321 320 320 319 318 318 317 314 314 314 319 326 319 315 319 320 318 317 317 316 313 311 309 310 311 311 311 311 311 312 312 314 315 315 316 316 316 317 317 316 315 316 316 314 313 311 312 315 316 316 316 315 315 315 316 315 315 315 314 315 315 317 321 324 328 333 335 336
324 323 322 321 319 320 321 322 322 322 322 322 322 321 320 320 320 321 321 321 321 320 319 319 318 315 312 311 312 313 318 320 314 314 316 317 318 316 315 315 312 310 309 312 311 310 311 311 311 312 312 313 314 315 315 315 315 316 318 316 314 313 314 312 311 310 311 314 315 315 315 314 315 315 315 315 315 314 313 315 314 318 325 327 329 332 334 336
324 323 322 321 320 320 321 321 321 322 322 322 321 320 320 319 320 320 320 321 320 319 319 319 316 310 309 313 314 311 314 317 314 314 315 315 316 314 312 311 310 310 312 313 311 310 311 311 311 312 313 313 314 315 314 315 315 316 317 316 314 313 312 311 310 311 311 313 313 314 314 315 314 313 313 314 315 315 315 317 317 320 324 325 327 330 332 335
323 323 322 320 320 320 321 321 321 321 322 321 320 320 319 319 319 320 319 320 319 319 319 317 312 307 309 314 313 312 315 315 313 312 314 315 314 314 312 311 310 310 313 313 311 311 310 311 311 312 313 313 314 314 314 315 315 316 317 315 314 313 312 311 311 311 311 312 312 314 315 314 312 312 314 315 315 314 314 317 318 320 321 323 325 327 330 334
323 323 322 320 320 320 320 321 321 321 321 320 320 319 319 319 319 319 319 319 318 319 318 315 310 307 311 314 312 316 317 313 312 312 313 315 313 313 312 311 311 311 313 312 311 311 311 311 312 313 312 312 313 313 314 315 314 315 315 314 313 312 312 312 312 311 312 312 312 314 315 313 312 312 315 315 313 312 313 315 318 318 319 322 324 326 329 331
322 322 321 320 320 320 320 321 321 320 320 320 319 319 318 319 318 318 318 318 318 318 317 314 309 308 314 315 313 318 317 313 312 311 312 314 313 311 312 311 311 312 313 312 311 311 311 312 313 312 311 312 312 312 314 313 313 315 314 314 313 312 312 312 313 312 313 313 312 314 315 313 312 313 315 314 311 312 313 315 318 318 318 321 323 326 329 331
322 322 321 320 319 320 320 320 320 319 319 319 319 319 318 318 318 317 318 317 317 317 316 315 311 311 314 313 313 317 315 313 311 310 312 314 314 311 311 312 312 312 312 312 312 311 311 311 311 312 311 311 312 312 313 312 313 314 314 315 313 314 314 312 313 312 313 313 312 314 314 313 314 314 314 312 311 312 313 314 317 317 317 319 322 325 328 330
322 321 321 320 319 320 320 320 319 319 318 318 319 319 318 317 317 317 317 317 317 317 317 315 312 315 314 310 313 314 314 315 311 310 312 314 314 313 312 313 313 312 312 313 312 311 311 310 311 311 310 311 312 311 312 312 313 314 315 315 314 314 314 313 313 312 313 312 311 313 312 313 316 315 313 311 311 313 313 314 316 317 317 319 323 325 327 329
321 321 321 320 319 319 320 319 318 317 317 318 319 318 318 317 316 316 316 317 316 316 317 315 314 316 313 311 312 310 312 315 312 312 312 313 313 312 312 312 312 312 312 311 311 312 310 310 312 311 311 311 311 310 311 312 313 314 314 315 315 313 312 314 313 313 314 311 311 312 310 313 317 315 313 311 311 312 314 314 315 316 317 319 322 324 325 327
321 321 320 320 319 319 319 317 316 317 317 318 318 317 317 316 316 316 316 316 316 316 316 315 316 314 311 311 311 309 311 313 313 313 311 312 312 311 311 310 311 311 311 310 311 311 310 310 311 311 311 310 311 311 312 312 312 314 312 312 314 312 312 315 313 313 314 312 311 312 311 313 316 314 311 311 311 312 313 314 315 315 317 319 320 321 322 324
321 321 320 319 319 318 318 317 317 317 318 318 317 317 316 315 315 315 316 316 315 316 316 316 316 315 312 314 313 311 311 313 315 313 311 312 312 312 311 310 310 310 310 310 310 310 310 311 311 312 311 310 312 312 313 312 311 314 312 310 312 313 313 314 312 312 314 313 312 312 312 314 315 313 311 311 311 312 313 314 314 315 315 316 317 318 319 320
321 320 319 319 318 317 317 317 317 318 318 317 316 316 315 315 314 315 315 315 315 316 315 314 314 314 314 313 313 313 312 313 315 313 311 311 312 312 311 311 311 310 309 309 309 310 310 311 311 312 311 311 312 312 312 310 310 312 312 311 313 313 312 312 313 313 313 314 314 312 312 314 315 314 311 311 312 312 313 313 314 314 314 315 315 315 316 317
320 319 319 318 317 316 317 318 318 318 317 316 316 315 314 314 314 315 315 315 316 314 313 312 312 316 318 312 312 314 313 314 314 312 311 311 312 312 311 311 311 310 310 309 310 310 311 311 311 311 311 311 312 312 311 310 310 311 311 311 313 313 312 312 313 313 313 313 314 314 313 314 315 315 313 312 312 313 313 313 314 314 314 314 315 314 314 315
320 319 318 317 316 317 317 318 317 317 316 315 315 314 314 314 315 316 315 316 314 311 312 311 311 318 319 312 312 315 314 313 313 313 312 311 311 311 311 311 311 311 310 310 311 310 311 312 311 312 311 311 312 312 312 313 313 313 312 311 311 311 311 313 313 311 312 313 314 314 314 314 315 315 315 313 312 312 313 313 313 314 313 314 314 315 315 315
319 318 318 317 317 317 317 317 317 317 316 315 314 314 314 315 316 315 314 315 313 310 312 311 311 314 312 310 313 313 313 312 312 313 312 311 311 311 311 311 312 312 311 312 312 311 312 313 312 312 312 312 312 312 313 313 314 314 314 312 311 311 310 312 313 311 312 313 314 314 314 315 315 315 315 314 314 313 313 313 313 314 314 314 314 314 316 315
319 318 317 317 317 317 317 316 316 316 315 314 313 314 315 316 317 316 313 314 313 309 310 309 312 312 309 311 313 312 312 311 312 314 312 311 312 311 311 311 312 312 312 313 312 311 312 313 312 312 313 312 312 313 313 312 313 314 313 312 312 312 312 312 313 311 311 312 313 314 314 314 315 315 315 315 314 314 314 314 314 314 314 315 315 315 316 316
318 317 317 317 317 317 316 316 315 315 315 314 314 314 314 314 315 315 313 313 310 309 310 309 311 311 310 313 313 312 312 311 312 313 312 311 312 311 311 311 311 311 312 313 312 312 312 313 312 311 312 312 312 312 312 312 313 312 313 312 311 312 312 312 313 312 311 311 313 315 314 314 315 314 314 314 315 315 315 315 314 314 314 315 315 316 317 317
317 317 317 317 317 316 315 315 315 315 314 314 315 314 313 313 312 312 312 311 309 309 310 309 310 311 311 312 312 312 311 310 312 313 312 311 312 312 311 311 311 311 312 312 312 312 312 312 311 310 311 312 311 311 311 312 312 313 313 310 311 314 311 310 312 312 311 311 312 314 314 314 314 314 315 315 315 316 316 316 316 316 316 316 318 319 319 319
317 317 316 316 316 315 315 315 315 315 314 314 315 314 311 311 312 312 312 311 309 308 309 309 310 311 311 311 312 312 311 311 312 313 312 312 312 312 311 311 311 311 311 311 311 312 312 310 308 310 311 312 311 311 312 311 311 314 316 312 313 315 312 312 313 312 311 311 311 313 311 311 313 313 314 315 316 316 316 315 315 316 317 317 319 321 320 319
317 316 316 315 315 315 315 315 315 314 314 314 315 314 311 310 311 312 313 312 311 310 309 310 311 312 312 312 312 312 311 311 312 313 313 312 312 311 311 311 311 311 311 311 311 312 311 307 306 310 311 312 312 311 312 312 310 312 317 316 313 313 313 314 314 312 311 311 313 313 309 308 312 314 314 315 315 314 315 314 314 315 316 316 316 317 317 318
316 315 315 314 314 315 315 315 314 314 314 314 314 313 311 310 310 312 313 312 313 311 308 309 311 311 311 312 312 311 311 311 311 313 312 312 311 310 311 311 311 311 311 311 311 312 309 305 307 312 312 315 314 311 313 314 310 310 315 316 313 313 315 314 315 313 311 311 311 312 310 309 311 313 315 316 314 314 314 314 314 314 315 316 316 315 316 317
315 315 314 314 314 315 314 314 314 314 314 313 314 312 310 310 309 311 312 312 312 311 309 308 309 311 312 312 311 310 310 311 310 312 312 311 310 309 311 310 310 311 310 311 311 311 307 306 309 313 313 315 314 312 315 315 311 312 317 316 312 314 316 316 316 314 312 313 311 312 313 311 309 312 315 315 313 314 314 314 315 314 314 315 315 314 315 315
315 314 314 314 314 314 314 314 314 313 313 313 313 312 310 309 309 311 311 311 312 311 309 308 308 311 313 313 311 310 311 311 312 312 311 310 310 309 311 311 310 310 310 310 311 311 309 310 311 313 314 315 314 315 317 315 313 315 316 316 314 316 317 316 316 314 314 313 311 313 314 310 308 311 314 314 312 313 314 314 315 315 315 315 314 314 315 315
314 314 314 314 314 313 314 314 314 313 312 312 312 311 309 309 310 311 311 311 311 310 309 308 309 311 312 311 311 311 311 311 312 312 310 309 310 309 310 311 310 310 309 311 313 313 311 310 311 313 314 314 313 313 317 318 315 314 313 315 316 317 317 317 315 313 313 312 310 314 314 310 308 310 312 313 312 313 314 314 315 315 315 315 315 315 315 314
314 314 314 314 313 313 313 314 313 313 311 310 310 309 309 309 310 311 312 313 312 310 308 309 309 311 312 311 310 311 311 312 311 311 310 310 310 309 310 311 311 311 311 313 315 312 309 308 311 314 313 311 310 309 313 317 315 313 315 315 315 315 315 315 314 313 312 312 312 314 314 312 309 309 312 314 312 313 314 314 314 315 315 315 315 315 314 313
314 314 314 314 313 312 313 313 312 313 310 309 309 310 310 310 309 311 313 313 312 310 308 308 310 311 311 311 311 311 312 312 311 311 311 311 310 310 310 311 312 312 313 314 314 312 310 309 312 313 309 309 311 310 311 313 313 315 317 315 314 314 313 312 312 312 312 312 311 311 313 313 310 309 313 314 312 311 313 313 313 314 314 315 315 314 313 312
314 314 314 313 312 312 312 312 312 312 310 309 310 311 311 310 310 312 312 311 312 311 309 310 310 311 311 311 311 311 312 313 312 311 311 311 311 310 311 311 311 312 312 312 314 315 314 312 312 312 308 309 314 312 310 311 313 315 315 313 313 313 313 313 312 312 312 311 309 308 312 313 311 310 312 314 313 311 311 312 313 314 314 314 315 315 314 314
314 314 313 312 312 311 312 312 311 311 309 310 312 311 310 311 312 313 310 310 312 311 311 311 311 311 311 311 312 312 313 313 312 312 312 312 312 312 312 312 312 313 312 313 314 315 315 314 314 313 310 309 313 313 311 311 312 314 313 312 312 312 315 315 314 313 312 311 309 309 311 312 310 311 313 314 313 312 311 312 313 314 313 313 314 314 314 314
314 313 312 312 311 311 311 311 310 309 310 312 312 310 311 313 313 313 311 310 312 311 311 312 311 311 311 312 313 312 313 314 312 312 312 312 313 313 313 313 313 314 314 313 314 314 315 314 313 314 313 311 313 314 314 314 313 314 316 314 312 312 314 314 313 313 313 312 309 309 310 310 309 310 313 313 312 311 310 310 312 312 312 312 312 313 314 314
313 313 312 311 311 311 310 310 309 309 311 313 311 309 312 313 312 312 312 311 311 311 311 312 312 312 311 313 313 312 313 314 313 312 313 313 313 313 313 312 313 315 314 314 314 313 314 314 313 312 312 312 313 314 314 315 314 314 316 316 314 313 312 312 312 311 312 312 310 310 310 311 312 312 313 313 311 310 309 309 310 311 312 312 313 314 315 314
313 312 312 312 312 311 310 309 308 310 312 312 310 310 312 313 313 313 312 310 311 312 311 312 312 312 312 314 314 312 313 314 314 313 314 314 313 314 314 312 313 314 313 313 314 313 313 314 313 312 311 310 311 312 313 314 315 314 314 314 313 314 313 311 310 309 309 310 311 311 311 311 311 312 313 313 310 310 309 309 310 311 313 313 314 317 317 315
312 312 312 312 311 311 309 309 308 311 314 311 310 312 313 313 313 313 311 310 311 312 312 312 313 313 313 314 314 313 314 315 314 314 314 314 313 314 314 313 313 313 313 313 313 314 314 314 313 315 315 311 309 311 312 312 314 313 313 314 312 312 313 310 310 310 309 310 310 310 310 309 308 310 312 313 311 311 310 310 310 312 313 313 316 318 316 314
312 312 312 312 311 310 309 308 309 312 314 312 311 312 314 313 312 311 311 311 311 311 312 313 314 313 313 314 313 313 314 315 314 315 314 313 313 314 314 313 313 312 313 313 313 315 316 314 314 314 314 312 311 313 313 312 312 312 312 314 313 312 312 310 311 312 311 311 310 309 309 308 309 309 310 311 312 311 311 311 311 311 312 313 316 317 314 314
312 312 313 312 311 310 309 309 311 312 313 312 312 313 314 314 312 311 310 310 312 312 313 313 313 314 313 312 313 314 313 313 314 314 315 314 313 314 314 314 314 312 311 311 313 315 316 315 315 313 312 313 312 312 313 313 312 310 310 312 313 314 312 311 311 311 311 311 310 310 309 309 311 311 310 312 312 311 311 312 312 311 312 314 315 316 316 317
312 314 314 312 311 310 310 311 312 312 312 312 312 313 315 314 311 311 311 313 313 312 313 314 313 314 314 313 313 314 313 313 314 314 314 314 312 312 313 313 314 312 311 312 314 315 313 313 316 313 311 313 312 312 315 314 312 310 310 311 312 312 311 311 311 310 310 310 310 311 310 308 311 312 311 312 311 311 311 312 313 313 313 314 314 316 318 318
313 316 315 311 310 311 311 311 312 313 312 312 311 313 315 314 312 312 314 316 315 312 312 315 314 313 315 314 313 314 313 314 314 313 314 314 312 312 312 312 313 312 311 311 313 315 312 312 316 314 312 313 314 313 312 314 314 313 311 311 312 312 311 312 313 311 310 309 309 310 310 309 311 312 311 312 310 310 310 310 313 314 313 313 314 315 318 318
315 316 314 311 311 312 311 312 312 313 313 311 311 313 314 313 312 313 313 315 315 313 313 315 315 314 315 315 314 315 314 314 315 314 315 315 313 312 313 312 312 311 311 312 314 317 316 315 316 314 314 313 313 312 309 310 314 314 312 313 313 312 312 312 313 313 310 308 308 309 310 310 312 310 308 309 308 307 307 308 311 313 311 312 314 315 318 318
316 315 312 310 311 312 312 312 313 314 313 311 311 313 314 314 313 313 313 314 314 314 314 315 315 315 316 315 315 315 314 315 316 315 315 315 314 314 315 314 311 311 312 313 315 316 316 317 316 314 313 312 311 311 309 310 313 313 312 313 313 314 316 313 312 313 312 309 308 310 310 311 315 312 308 308 308 308 307 306 309 311 311 312 314 315 317 317
314 313 312 311 312 313 312 312 314 314 312 311 312 312 312 314 314 313 314 315 315 314 313 314 315 314 315 315 315 315 314 314 315 315 315 316 314 312 314 315 312 311 313 313 313 313 313 316 317 315 315 314 313 313 313 312 312 312 313 314 313 315 317 313 312 311 312 313 312 311 311 312 315 314 310 310 310 310 308 307 308 310 312 313 314 315 316 316
313 313 312 311 311 313 313 312 313 313 311 311 314 313 312 313 313 313 315 316 315 316 314 314 315 314 314 315 315 315 315 314 316 316 315 315 313 310 313 316 313 312 317 320 316 313 314 316 316 316 316 316 316 316 315 315 313 312 314 315 314 315 314 312 312 312 312 315 315 312 311 310 310 310 311 311 311 309 309 309 309 310 312 314 315 316 316 316
314 314 313 312 312 312 313 312 312 313 311 310 312 313 313 313 311 312 315 315 313 316 315 314 315 314 314 315 315 315 315 316 316 316 314 314 313 311 312 314 314 314 320 324 318 314 317 318 315 315 316 315 316 317 317 317 316 315 316 317 315 315 315 314 314 313 313 315 315 313 313 312 311 309 310 311 311 310 310 310 309 309 312 315 316 315 315 316
314 314 313 313 313 313 313 312 312 312 311 310 311 313 314 313 311 311 313 313 313 315 315 313 314 314 313 314 315 315 315 316 315 315 315 314 312 310 310 311 313 316 318 318 316 315 316 316 315 316 317 315 316 318 319 320 319 317 318 319 318 316 315 316 315 314 315 315 314 314 315 315 313 311 311 311 311 311 310 310 310 309 312 314 315 315 314 313
310 313 313 313 314 314 313 313 313 312 311 310 310 313 314 314 312 311 312 313 313 315 315 314 314 314 313 314 315 315 316 315 314 316 316 315 312 310 309 309 311 313 313 313 315 315 313 313 315 316 316 316 317 318 319 319 318 317 317 319 318 316 315 316 316 315 316 316 314 314 316 316 315 312 311 312 312 311 311 312 312 311 312 314 314 314 312 312
308 311 311 311 313 314 312 312 312 312 311 311 311 312 313 313 313 312 313 313 314 314 314 314 314 314 315 315 315 316 316 314 315 317 316 314 313 312 310 309 309 310 311 312 314 315 313 313 315 316 315 316 317 317 317 318 318 318 317 317 317 315 314 314 314 315 316 316 314 314 316 317 316 313 312 315 317 314 313 313 313 312 313 314 314 313 312 312
308 309 310 312 313 313 312 311 312 311 311 311 311 312 313 313 313 314 314 315 315 314 315 316 314 314 315 315 315 316 315 314 316 317 314 314 314 312 311 311 310 310 311 311 312 313 313 313 316 316 314 315 319 320 318 318 319 318 319 319 317 315 315 315 314 314 315 316 315 315 316 317 316 314 314 317 317 314 312 312 311 311 313 313 313 312 312 311
303 303 306 312 314 313 313 312 311 311 311 311 311 312 313 313 314 315 315 314 315 315 316 316 316 316 316 316 317 318 316 316 317 316 313 314 314 313 314 314 312 311 312 311 312 312 312 312 315 315 312 314 319 319 316 316 315 315 318 320 318 316 316 315 315 315 315 316 317 317 317 316 315 314 315 317 315 312 312 311 310 311 313 313 312 312 312 311
302 302 306 312 313 312 313 312 311 311 312 311 311 312 313 313 314 314 314 313 315 316 316 316 317 317 316 317 320 321 320 320 319 317 316 317 316 316 317 316 312 311 311 311 312 312 311 312 313 313 313 314 316 316 316 315 312 312 315 317 317 317 316 315 315 315 315 315 316 317 316 315 315 315 314 315 314 312 312 312 313 313 314 313 313 312 312 312
Wind_Speed
49 47 47 46 44 41 40 39 37 36 35 34 34 34 33 31 31 29 27 27 25 24 26 25 24 24 22 20 18 17 15 15 13 10 11 16 18 12 8 8 4 5 9 13 15 13 11 8 6 5 5 4 3 2 4 2 2 3 4 5 5 5 4 4 6 3 2 6 9 10 13 11 9 8 4 3 5 3 5 6 4 4 4 7 7 6 13 19
50 49 47 47 45 42 40 40 38 37 35 34 33 33 33 32 31 30 27 27 25 23 25 25 24 24 22 21 19 18 15 11 8 9 19 22 16 12 9 10 6 9 8 8 11 11 9 8 5 4 5 4 3 3 5 3 2 4 4 5 6 4 3 2 2 3 3 4 10 10 12 9 9 11 7 6 9 7 6 7 6 6 7 9 9 9 13 18
51 51 49 47 46 43 41 40 39 38 36 34 32 32 32 32 31 29 28 27 26 23 24 24 24 23 22 22 20 18 12 6 4 12 27 26 18 14 11 12 10 12 10 9 10 9 10 10 6 4 5 5 3 4 5 4 3 3 3 5 4 3 5 4 2 4 4 2 10 11 9 7 7 10 8 7 8 9 9 7 8 9 10 10 12 14 15 17
51 51 50 47 46 43 41 41 40 39 38 35 33 32 31 31 30 28 28 27 26 23 23 23 23 23 22 22 20 16 11 3 6 17 28 25 21 16 13 14 12 13 12 12 13 11 11 11 9 6 6 6 4 4 6 5 3 2 3 3 1 2 3 4 3 5 4 1 7 10 9 7 6 7 7 8 7 8 10 9 10 10 12 13 13 16 16 17
51 50 50 48 46 43 40 41 40 39 39 37 34 32 31 30 29 28 28 27 26 24 23 23 22 22 22 21 19 16 11 4 6 17 26 23 22 18 15 15 13 15 13 13 12 10 12 11 9 7 6 6 4 5 8 6 2 3 4 2 4 2 2 5 3 4 3 1 6 10 9 8 6 5 8 10 8 3 2 3 5 5 9 14 15 16 17 17
49 48 49 47 45 42 41 41 40 38 38 37 35 33 31 29 29 28 27 27 26 24 23 22 22 22 20 20 20 15 11 5 2 10 21 23 24 21 18 15 16 18 15 14 11 8 10 10 8 7 6 6 7 7 6 6 2 4 4 2 4 3 3 4 2 2 1 2 8 9 7 7 7 7 8 11 8 3 7 5 6 4 3 14 17 16 16 16
47 47 48 46 44 42 41 41 40 38 36 37 36 34 31 28 28 28 26 26 26 25 23 21 22 23 21 21 17 11 11 6 3 5 16 21 23 21 19 18 20 20 16 14 11 9 9 10 9 7 7 6 8 8 4 4 4 6 3 5 4 4 3 3 2 1 2 2 5 5 6 7 10 7 5 10 8 6 8 6 6 5 5 13 15 15 15 16
49 47 48 45 44 42 41 41 39 37 35 36 36 35 33 30 29 28 27 26 25 25 24 21 23 24 25 21 12 8 11 7 2 4 11 19 20 19 19 19 22 20 18 16 13 11 9 10 11 7 8 7 6 7 5 5 6 8 3 6 4 4 4 3 2 2 2 1 2 4 6 5 4 1 2 9 9 6 8 6 6 4 6 10 12 14 14 15
51 49 49 46 44 42 41 41 39 38 36 36 37 35 33 31 30 28 27 26 25 24 24 23 25 27 26 18 9 8 10 10 6 4 5 14 19 19 20 21 24 23 18 17 15 13 9 9 11 8 6 6 5 6 6 7 6 7 4 6 6 5 5 3 2 3 3 1 2 6 7 2 3 2 5 9 6 6 7 5 5 5 6 8 10 12 13 13
51 50 49 47 44 42 41 41 40 38 36 36 37 35 33 32 30 29 26 26 25 24 24 25 27 29 23 13 11 8 7 12 11 5 3 7 15 19 21 22 26 25 17 13 14 14 10 8 7 3 2 3 4 4 6 7 2 4 7 7 7 6 4 2 3 4 3 3 4 6 6 2 3 2 6 5 4 5 5 6 6 5 6 7 8 10 12 13
50 49 48 47 44 42 42 41 39 37 36 37 36 35 33 32 31 29 25 25 25 23 24 26 29 30 17 10 12 6 4 11 15 11 3 4 11 18 23 23 25 26 18 12 15 17 12 6 2 1 2 2 5 3 3 3 1 7 10 8 6 5 5 3 4 5 3 3 3 4 4 3 3 4 4 5 5 3 6 7 8 7 7 7 8 8 9 11
50 50 49 47 45 43 42 40 38 36 35 35 35 34 33 32 31 28 25 24 23 23 23 26 30 25 12 8 10 4 5 9 15 15 9 6 11 18 23 23 23 24 18 11 15 19 13 3 4 6 2 2 5 3 2 2 2 8 9 7 7 5 5 4 4 4 3 3 3 2 3 4 7 9 5 7 4 4 6 7 8 8 7 7 8 8 8 9
50 51 50 48 45 43 41 40 38 36 35 34 34 33 33 32 30 28 25 23 22 23 22 25 27 18 9 8 6 3 5 6 12 14 13 11 12 16 20 19 19 21 17 11 11 17 16 7 7 8 2 3 3 2 2 3 3 7 8 5 6 5 6 6 4 4 3 2 3 3 4 6 12 13 6 8 4 5 6 7 7 7 7 7 7 7 8 9
51 51 50 48 45 43 41 40 39 37 36 34 34 34 32 30 28 27 24 21 22 22 22 23 22 12 7 6 4 4 4 5 10 14 15 14 13 15 14 14 16 18 16 12 8 12 17 10 6 6 0 3 1 3 3 5 3 6 6 5 6 6 6 8 5 7 5 2 3 4 4 5 8 11 7 6 4 4 6 7 7 7 7 7 7 7 8 9
52 51 50 48 46 43 41 40 39 37 35 34 35 34 30 29 27 25 22 21 20 21 22 20 16 9 5 5 4 7 8 6 8 11 14 15 14 13 11 11 13 14 14 12 9 9 13 10 6 5 2 0 3 5 5 5 5 6 6 6 7 6 5 7 5 6 3 3 6 5 5 5 5 9 7 4 5 5 7 7 7 7 7 8 7 8 8 8
52 51 49 48 46 44 42 40 38 37 36 35 34 31 28 28 26 23 21 20 20 21 20 16 14 8 5 5 5 8 9 7 9 10 14 14 10 10 12 11 10 9 8 9 9 8 10 9 3 2 3 4 6 7 5 5 6 6 7 7 8 8 6 6 5 4 2 4 9 8 5 4 4 7 5 4 5 6 7 8 8 8 7 8 7 7 7 8
52 51 49 49 47 44 43 40 39 38 37 35 33 30 28 25 24 22 20 20 20 20 14 11 14 5 3 5 5 8 11 9 11 11 14 14 9 13 16 10 8 8 6 6 8 8 8 7 2 1 4 5 7 7 7 7 7 7 7 6 6 9 7 5 5 4 5 5 8 9 7 7 3 7 6 6 6 7 7 8 8 8 7 7 6 7 8 8
53 52 50 49 47 45 43 41 42 39 37 37 33 31 29 26 25 22 21 21 18 13 5 6 13 4 5 9 7 8 12 12 12 12 15 14 11 14 13 8 9 11 10 7 5 6 5 4 4 5 6 7 8 9 8 8 9 9 8 6 4 6 7 5 4 5 8 7 8 10 10 13 8 6 8 9 8 7 7 7 6 7 8 7 7 7 8 9
53 52 51 49 48 46 44 44 43 41 41 38 35 35 31 25 19 16 20 20 15 11 5 8 16 6 3 12 10 8 12 15 13 11 13 11 10 12 8 8 11 12 10 6 6 7 4 4 5 7 8 9 10 12 10 7 9 11 11 9 7 7 7 4 3 3 5 7 9 11 10 12 13 10 8 10 10 8 7 6 5 6 7 7 8 8 8 9
54 52 52 49 48 47 46 46 43 43 43 41 43 35 23 19 13 9 14 14 13 9 3 12 19 5 4 10 14 14 13 14 12 9 12 13 12 12 8 8 9 8 9 8 8 6 3 5 7 9 11 12 14 13 6 2 4 9 11 10 9 8 6 4 5 2 1 4 9 12 12 12 13 12 10 8 9 8 9 9 8 8 8 8 9 9 10 10
55 53 52 50 50 48 47 47 44 44 44 47 45 23 13 18 11 11 16 11 9 2 3 15 20 3 5 8 14 17 13 10 10 10 13 15 14 11 8 8 10 8 7 9 8 4 2 7 10 11 10 11 12 9 2 1 2 6 8 7 7 6 3 4 4 3 2 3 6 7 9 13 13 11 10 9 10 11 10 11 11 11 10 9 10 11 11 10
55 53 52 51 50 49 48 47 46 47 46 46 37 13 10 12 3 14 20 9 6 2 3 17 18 4 6 8 9 9 10 11 12 12 13 15 13 11 8 9 12 9 6 8 7 5 6 9 10 8 3 4 5 3 2 2 3 5 5 6 6 4 4 4 4 4 3 3 3 2 5 11 12 12 12 11 12 12 11 11 11 11 11 10 10 10 10 9
54 54 53 51 51 50 49 49 48 48 43 40 31 12 7 8 14 28 20 7 8 2 3 18 16 6 8 8 6 4 8 14 13 13 14 15 11 9 9 11 12 9 8 10 9 7 8 6 4 4 5 6 5 4 5 4 4 5 4 6 5 4 4 2 3 5 2 2 2 3 5 9 10 10 12 13 13 11 9 9 9 8 9 9 8 7 8 9
54 54 52 51 52 50 50 51 47 41 36 33 29 15 6 17 30 32 14 6 9 2 2 10 11 9 8 8 8 7 7 10 10 14 16 15 11 7 9 12 11 8 8 12 12 9 5 1 1 2 6 8 6 7 8 6 6 5 5 6 3 6 4 1 5 6 2 2 2 4 6 8 9 11 12 10 7 8 8 7 8 8 8 7 6 6 6 8
55 54 53 53 51 51 53 48 37 33 31 28 27 20 11 23 31 23 9 7 8 3 2 4 4 7 8 8 9 8 6 6 5 11 14 11 9 8 7 7 7 9 12 13 13 9 3 1 1 4 7 8 8 9 10 9 6 5 6 5 1 4 6 6 7 6 2 4 3 2 5 5 6 10 11 7 4 7 8 8 10 10 9 8 8 9 8 8
56 53 55 53 51 56 50 31 27 32 27 21 26 22 16 23 24 14 6 5 7 6 7 7 5 8 10 8 9 7 8 6 2 7 12 7 3 4 6 4 2 7 12 10 6 3 2 1 1 4 7 7 8 8 10 9 8 5 4 3 2 3 6 8 8 5 2 2 1 1 5 4 3 6 8 6 5 8 8 8 11 9 9 9 8 8 8 7
56 54 56 53 55 59 36 17 29 32 20 20 29 24 21 23 15 6 3 5 7 7 8 5 4 9 10 10 13 9 7 8 5 5 9 6 3 1 4 7 4 4 7 6 3 1 4 4 1 5 7 6 7 7 7 9 8 3 1 1 6 5 6 8 7 5 2 1 2 2 4 4 5 3 4 5 5 8 8 10 10 9 9 9 7 7 6 6
56 56 55 53 60 52 24 22 35 26 15 22 28 24 22 20 9 3 3 6 5 6 8 4 3 9 8 9 15 8 4 13 10 7 6 3 4 2 5 11 10 7 5 4 7 2 4 6 6 8 7 6 5 2 4 9 7 1 2 1 4 4 6 8 6 4 1 1 3 5 4 3 6 4 4 4 6 9 10 11 10 9 8 7 6 6 4 4
56 57 53 55 56 36 19 27 33 25 21 22 24 25 21 14 5 3 4 5 5 4 5 6 6 9 9 10 14 6 5 9 6 7 9 4 3 1 3 8 10 10 5 1 4 1 2 3 3 5 6 5 3 4 2 3 3 3 3 3 5 3 4 5 5 3 2 4 5 6 6 4 5 5 4 4 5 9 10 8 6 7 7 6 5 4 3 2
57 56 54 56 47 26 21 27 27 31 28 20 24 26 18 8 4 6 6 5 7 5 4 7 8 11 14 14 12 8 9 5 3 9 10 7 6 2 1 2 6 9 4 3 5 3 1 0 1 0 2 2 4 5 5 2 3 7 7 6 6 4 4 3 3 3 4 6 4 4 3 3 4 4 5 4 2 3 5 4 5 6 6 6 4 3 2 1
56 54 56 52 36 25 24 22 26 36 30 22 27 23 12 5 4 7 6 4 7 5 4 8 12 15 19 18 12 11 10 6 8 14 12 9 8 7 5 4 5 5 4 4 4 3 4 3 1 1 1 1 4 5 5 3 3 5 5 6 6 4 3 4 3 3 6 6 1 2 0 3 5 4 3 1 1 1 1 2 5 7 7 6 4 2 1 1
55 54 56 44 29 27 21 19 32 38 28 24 24 14 7 6 5 5 5 6 7 7 8 13 17 17 20 19 12 12 11 8 11 14 13 11 9 10 10 8 7 6 6 7 5 4 4 3 2 2 1 3 3 5 5 1 2 3 5 7 5 4 4 5 5 5 6 2 2 1 1 3 7 7 5 6 4 2 3 1 2 6 7 5 4 2 1 1
54 55 51 36 31 28 17 20 38 38 27 23 15 6 5 8 8 8 8 7 7 9 11 14 17 18 19 16 11 13 11 8 13 14 13 12 10 10 8 7 11 9 5 7 7 5 4 2 3 3 2 3 4 5 4 4 5 7 8 8 6 6 5 6 6 5 5 1 2 0 1 3 6 6 9 10 5 2 3 1 1 2 2 1 1 1 2 1
55 55 44 32 34 29 17 26 42 40 29 19 9 6 8 9 9 11 10 6 5 10 13 15 18 19 18 14 12 14 9 6 12 14 13 12 9 10 7 7 13 9 4 8 7 6 6 3 4 4 3 4 6 2 0 4 8 6 3 4 6 6 4 5 5 5 4 2 2 1 2 4 3 1 3 5 2 3 2 2 1 1 1 1 1 2 2 1
55 49 35 29 31 24 18 30 43 40 26 12 7 8 10 9 8 11 10 7 7 11 14 17 18 17 15 11 13 13 4 3 11 11 11 12 10 11 11 10 13 9 7 9 4 5 8 3 1 1 0 3 4 1 3 2 6 4 1 1 5 3 1 2 0 1 2 1 2 4 3 4 3 4 3 3 2 2 3 3 3 3 3 2 1 2 2 2
49 37 27 25 24 20 21 34 43 35 17 8 9 9 9 7 6 8 9 9 10 14 18 18 14 14 13 8 12 13 2 3 12 9 9 12 11 12 12 11 13 11 10 8 3 3 6 2 2 1 1 1 1 2 2 1 3 3 2 3 2 2 2 2 1 2 1 4 3 4 4 4 3 7 4 4 3 3 4 4 5 4 4 3 2 3 4 3
40 28 23 21 22 22 26 38 41 26 10 7 11 10 7 3 1 5 10 12 13 16 17 14 10 12 13 8 11 14 7 6 11 8 8 11 10 12 14 11 14 15 10 5 2 2 4 3 2 1 3 3 1 1 1 2 0 2 3 4 2 1 1 1 2 1 2 5 3 4 6 4 3 4 2 5 4 4 5 5 4 4 3 4 4 4 4 4
32 23 16 18 24 24 28 39 36 16 4 6 12 11 5 2 2 7 13 14 16 17 14 11 9 10 12 10 10 14 12 9 10 8 8 9 7 12 16 10 11 16 9 1 2 2 2 3 2 2 2 3 1 1 2 1 1 0 2 1 1 2 3 2 3 3 4 5 4 4 5 4 4 4 2 3 4 5 6 5 4 4 4 5 5 5 5 5
25 14 8 17 25 23 29 36 25 9 5 8 11 9 3 3 4 10 16 16 14 15 13 11 10 8 10 12 12 14 13 11 11 9 7 8 6 10 16 10 8 13 9 2 2 3 1 1 2 1 1 2 1 2 4 5 3 0 1 1 0 1 2 3 3 3 3 5 5 3 2 3 5 6 7 6 2 3 5 5 4 5 5 5 4 5 5 5
14 7 7 19 24 24 31 26 12 7 8 8 7 5 3 4 4 8 13 13 10 8 9 12 12 9 11 13 13 13 11 11 13 9 7 9 6 4 11 11 9 10 7 3 2 4 2 1 3 3 0 2 3 3 4 5 5 4 4 4 3 1 0 2 3 1 1 4 5 4 3 3 2 3 7 5 3 4 3 2 3 4 4 4 3 3 5 5
7 5 8 20 26 30 29 16 7 9 8 4 3 3 3 5 6 7 5 4 3 1 3 10 13 10 10 13 13 12 9 9 12 10 6 10 10 5 8 12 11 11 8 4 3 4 2 1 4 4 3 3 2 1 1 1 1 3 4 6 6 4 3 3 4 2 0 3 3 3 4 2 2 0 2 1 3 4 3 1 2 3 3 3 3 3 3 5
6 6 11 24 34 33 23 9 7 8 5 4 3 3 4 5 8 9 4 2 3 2 0 6 10 10 9 11 12 12 10 8 10 10 7 9 12 7 6 9 13 14 10 5 3 1 1 3 5 4 2 1 1 2 1 1 1 1 2 3 4 5 5 6 5 3 2 2 0 1 3 2 1 1 1 2 3 3 3 2 1 2 2 2 3 3 3 4
6 8 15 29 35 27 15 8 7 7 4 3 3 4 3 5 7 8 6 5 3 2 3 4 6 8 7 8 10 13 12 8 9 12 9 8 8 2 2 7 12 14 9 4 3 2 1 3 4 3 2 1 1 2 1 0 1 3 3 3 3 4 4 3 2 1 3 4 3 2 4 3 1 1 2 1 2 2 1 1 1 1 1 2 4 4 3 3
6 7 10 25 28 16 9 9 10 9 6 5 6 4 2 2 6 7 8 7 3 4 7 5 4 5 4 6 8 13 13 7 7 10 7 7 5 3 3 9 12 11 7 4 6 5 3 3 4 4 3 2 2 2 2 1 2 4 4 5 6 3 2 2 1 2 3 5 6 5 6 4 1 1 0 1 1 0 1 2 2 2 2 4 4 3 3 3
8 5 4 15 16 8 5 6 8 9 9 8 8 8 5 3 2 2 5 5 1 2 6 4 4 5 6 6 7 10 12 6 4 6 3 4 4 3 2 8 10 9 3 3 7 6 4 4 5 6 6 5 5 5 6 5 4 4 2 4 7 7 6 4 2 3 4 5 6 6 7 3 1 1 1 0 1 3 3 4 3 3 3 4 4 3 3 3
7 5 6 9 6 6 4 2 4 8 11 11 8 8 9 7 3 2 1 4 0 0 4 3 5 7 7 10 9 9 12 4 3 5 6 5 4 3 2 3 5 3 2 6 11 7 2 1 4 8 8 8 9 9 9 7 6 7 8 8 10 11 11 6 2 5 6 4 4 7 9 6 2 3 3 2 3 4 4 5 4 4 4 4 4 4 3 2
2 4 9 9 5 8 7 4 6 9 12 13 9 8 11 11 9 3 1 1 3 3 3 3 6 8 10 13 10 10 13 6 4 6 9 6 4 4 3 2 3 3 3 5 10 7 2 2 5 8 9 9 7 5 8 9 8 11 13 12 12 12 12 9 7 11 9 4 6 11 12 11 8 6 6 6 6 5 5 7 7 7 7 5 5 4 3 2
1 2 4 3 2 8 10 10 12 11 15 16 8 9 14 12 12 10 3 1 3 4 2 2 6 11 15 15 10 8 10 6 3 6 7 6 5 6 4 2 2 1 2 3 5 4 5 6 7 8 10 9 2 4 6 9 8 10 10 10 12 13 14 13 13 14 10 6 10 14 13 14 11 8 8 7 7 6 6 6 5 7 8 7 6 5 4 4
1 2 1 2 2 4 8 10 13 14 17 16 9 10 16 15 15 12 6 5 5 5 5 5 10 13 14 14 10 8 10 8 6 6 5 6 6 6 5 3 2 1 1 3 2 0 4 8 8 8 10 11 4 4 5 8 8 9 10 10 12 14 15 15 14 15 14 12 14 16 15 13 9 9 9 5 4 3 2 3 3 6 9 9 7 6 5 4
1 2 2 1 2 7 9 10 14 15 14 13 9 9 13 15 15 12 7 7 9 9 7 8 13 14 14 14 10 9 13 13 10 9 8 8 6 5 5 5 5 3 1 3 3 1 2 6 8 8 7 10 6 4 3 4 5 8 9 9 11 13 14 14 13 14 14 15 17 17 15 11 6 7 8 3 5 4 3 4 6 8 10 9 7 6 5 4
1 1 1 3 5 8 11 11 13 14 12 11 11 10 12 15 15 12 6 1 4 8 9 10 13 11 9 11 10 9 12 11 10 13 15 13 10 8 5 4 8 8 5 5 5 3 3 2 4 6 6 8 5 5 5 3 1 4 5 7 12 13 12 13 13 14 14 14 15 14 12 10 7 7 7 4 5 5 6 7 7 8 9 8 7 7 7 6
2 2 1 1 4 5 9 11 12 13 11 11 12 11 12 14 14 13 8 1 1 2 6 9 12 9 6 9 8 5 6 4 3 7 8 6 6 5 3 5 11 11 8 7 4 3 6 5 3 6 8 7 3 4 6 6 1 5 7 10 14 14 14 14 14 15 15 13 12 10 11 10 5 7 9 6 6 6 6 6 7 8 9 9 9 8 7 7
Wind_Direction
195 192 190 190 189 190 190 189 187 185 187 188 189 191 192 194 195 197 197 197 197 197 197 197 198 200 201 201 199 201 205 206 202 198 209 218 213 214 216 186 208 286 276 259 251 274 286 269 260 263 260 215 211 198 166 209 235 220 216 211 209 209 198 174 184 166 109 137 145 162 174 180 162 168 171 154 215 188 155 180 141 129 110 87 109 115 128 143
196 192 190 189 188 189 190 188 186 184 184 185 187 189 190 191 192 194 195 196 196 196 197 196 197 198 199 201 203 205 201 195 190 213 225 224 212 203 204 183 209 269 273 255 238 253 271 269 253 231 254 224 188 174 172 180 214 223 220 215 217 199 125 93 158 96 23 152 150 163 181 190 169 162 167 187 194 185 192 190 181 181 153 122 127 135 141 153
196 192 189 188 186 188 189 187 185 183 183 182 184 186 187 189 189 191 193 195 194 194 194 194 194 195 197 198 201 198 181 164 190 236 234 227 207 189 186 185 218 261 258 261 256 252 260 276 281 237 244 244 205 187 192 181 194 233 232 223 215 136 94 64 86 94 27 110 151 162 178 188 163 151 168 203 196 192 212 200 189 197 179 155 145 147 151 164
196 190 187 186 185 186 187 187 185 183 182 181 181 183 184 186 187 188 191 193 192 191 190 190 191 191 193 192 189 174 148 170 236 235 234 221 198 185 179 186 223 252 244 254 260 255 249 258 269 254 244 245 222 209 207 179 183 203 203 240 41 90 116 97 76 89 44 360 160 155 164 178 156 152 176 200 203 202 218 211 198 204 188 166 150 155 163 172
194 187 184 184 183 184 186 186 186 184 182 181 180 181 182 183 186 188 189 191 190 188 186 186 186 185 188 184 173 156 150 211 232 226 230 216 193 184 179 184 221 242 236 241 247 250 241 237 244 241 244 237 215 220 208 179 187 202 189 2 31 29 90 98 77 74 43 347 151 150 168 170 145 174 195 202 213 197 212 208 183 200 187 164 152 156 166 176
191 184 183 182 181 184 185 186 186 184 183 181 179 179 180 181 184 185 186 188 188 185 183 181 180 179 176 167 160 162 188 210 102 208 217 208 195 187 183 190 218 230 229 228 228 234 226 220 221 216 227 232 217 216 196 167 205 231 191 105 53 30 50 86 82 59 1 173 159 158 159 150 160 194 201 212 222 89 53 40 67 53 122 149 149 154 167 178
190 183 183 181 181 183 184 187 186 184 182 179 178 178 178 179 182 184 184 186 186 182 180 178 176 171 159 149 153 176 222 234 68 185 195 195 198 196 193 202 216 217 213 212 214 222 218 209 208 208 216 226 220 214 193 159 209 251 198 137 99 52 61 67 64 89 262 186 152 146 141 165 192 193 180 218 223 104 78 55 66 74 114 141 149 161 173 182
190 185 183 181 181 183 184 187 185 184 181 177 177 177 178 179 181 182 181 183 183 179 179 176 171 166 154 148 153 186 226 230 122 163 183 186 193 198 195 198 207 204 199 201 204 213 216 210 206 206 215 224 215 204 194 166 206 241 205 125 116 80 86 83 87 169 218 203 108 151 167 175 192 162 168 222 221 134 109 92 89 116 148 159 164 170 177 184
188 185 182 181 181 182 184 186 185 183 179 176 176 176 177 177 177 179 179 179 177 177 176 172 168 163 155 154 175 200 213 212 179 141 158 180 190 197 196 195 197 195 196 200 206 215 217 213 209 206 225 239 218 197 195 192 208 219 172 119 124 102 97 113 147 171 192 183 173 181 178 138 56 338 244 220 202 123 125 129 118 134 164 178 176 177 183 187
185 183 181 180 180 181 183 184 184 183 179 176 175 175 175 175 175 176 176 174 174 175 172 171 166 160 155 161 196 209 192 192 193 178 111 164 187 187 188 194 193 190 193 197 208 216 216 222 216 207 298 270 220 207 199 206 219 149 131 112 118 106 103 141 153 160 174 149 200 197 168 125 90 250 237 182 127 110 157 174 160 164 176 183 184 185 189 193
183 182 179 178 180 181 182 182 182 182 179 175 174 174 174 174 174 173 174 172 173 173 169 170 163 159 162 183 203 204 145 179 197 207 184 138 180 179 182 193 191 189 192 193 208 215 217 233 195 137 327 225 191 207 202 212 260 137 132 113 115 119 119 141 146 158 186 149 207 212 149 135 128 217 228 124 106 151 194 191 179 193 194 187 191 190 193 199
181 180 179 178 178 178 179 180 179 180 178 174 173 173 172 173 173 173 172 170 172 170 167 169 163 159 168 205 215 187 117 170 194 207 209 166 178 184 186 191 190 190 192 196 211 214 217 216 189 206 254 226 174 169 184 190 190 157 158 147 140 154 150 155 146 163 224 168 185 209 175 193 194 217 197 120 120 147 194 208 191 200 202 195 193 190 196 199
178 178 179 176 175 177 177 177 177 177 176 174 171 169 169 170 171 172 169 169 170 167 166 167 162 161 184 206 210 159 127 164 184 193 194 179 178 185 188 190 191 193 194 211 220 213 214 207 214 221 261 280 197 138 139 143 167 172 194 197 159 186 186 163 148 170 207 140 186 226 229 218 203 206 160 119 144 140 186 213 201 203 198 198 194 193 200 196
177 177 176 174 174 175 176 176 176 177 178 175 169 165 165 166 168 169 165 165 165 163 165 163 160 167 206 197 168 190 187 158 170 178 178 174 165 167 180 187 193 198 200 219 231 210 211 208 226 224 199 300 197 134 152 138 181 180 193 218 191 207 178 147 151 177 180 134 199 225 251 244 181 174 139 121 163 165 203 213 207 208 195 197 195 198 206 198
176 175 174 172 172 173 175 175 174 176 177 172 165 161 159 161 164 162 159 160 161 161 159 158 165 175 205 205 171 191 195 166 166 178 175 168 159 157 169 175 182 198 205 222 235 209 200 191 209 212 149 116 152 169 171 151 198 190 187 208 206 214 157 137 156 181 184 155 192 212 241 246 144 136 127 134 174 187 214 218 211 210 201 202 198 201 210 206
174 173 172 171 171 172 172 172 172 172 171 165 159 155 152 155 158 156 155 156 154 156 152 158 181 195 216 203 158 167 180 181 178 182 179 170 167 159 151 150 159 181 198 215 216 185 177 178 198 231 150 165 184 190 176 166 197 197 208 208 196 205 172 146 160 184 189 152 193 220 254 252 136 126 133 148 181 194 214 225 219 217 210 208 204 205 210 209
173 172 171 170 169 169 169 169 167 164 162 156 150 147 146 148 152 150 148 150 150 152 151 161 177 207 268 167 152 184 180 176 174 175 182 177 172 158 144 135 142 148 142 166 178 160 172 182 165 201 186 193 203 200 189 190 196 190 213 217 191 203 196 166 153 168 187 182 206 214 239 259 173 134 157 167 177 186 207 226 225 226 222 214 213 211 211 213
171 170 169 169 167 167 167 165 162 158 154 150 144 142 141 139 142 142 142 144 140 144 149 158 165 196 252 183 174 186 169 159 162 166 177 175 165 158 147 137 144 144 138 142 167 173 186 183 175 198 198 205 208 204 201 201 200 187 194 208 185 207 223 204 157 154 184 204 219 204 219 247 236 171 162 169 176 185 201 217 227 234 232 225 219 217 219 219
170 168 167 167 165 165 165 161 159 155 149 144 139 135 133 131 131 134 147 155 151 155 177 177 178 188 201 175 152 129 148 153 152 156 169 166 160 160 146 141 151 154 155 155 177 183 181 171 191 210 201 202 206 208 214 215 208 188 184 204 202 202 218 193 99 102 192 206 216 216 223 240 241 226 197 175 175 194 213 216 226 231 235 236 227 225 224 223
168 167 165 165 164 164 162 160 157 154 151 145 139 136 136 138 136 148 166 183 185 178 188 178 185 193 74 146 135 120 137 156 157 154 165 164 158 160 149 145 159 174 180 171 168 169 180 184 192 210 205 203 208 210 220 272 222 191 186 208 215 207 201 136 92 88 228 226 217 225 239 245 246 243 229 196 181 202 219 221 227 227 229 231 228 229 226 227
166 164 164 163 163 162 161 161 159 159 158 151 148 148 159 158 158 169 171 192 195 217 330 174 177 168 67 130 135 133 137 157 172 160 164 167 162 165 162 160 171 185 188 165 148 132 190 206 202 209 210 203 205 205 198 354 221 203 199 206 215 214 181 98 95 122 147 244 221 219 248 254 253 252 247 233 221 225 225 223 228 230 229 227 225 228 230 230
164 163 163 162 162 163 162 163 162 161 158 155 161 172 175 172 125 143 153 155 158 354 339 169 171 118 86 135 144 148 149 157 170 162 162 169 175 183 170 176 186 174 154 149 143 149 195 215 202 193 176 144 159 160 185 234 220 214 213 212 219 197 134 101 101 122 145 231 217 175 258 261 257 256 251 243 239 239 234 231 232 233 233 228 221 223 228 227
163 162 162 162 163 163 163 163 161 159 157 161 176 191 165 154 123 135 141 115 130 105 144 167 177 148 113 143 166 205 172 162 169 164 163 172 185 194 173 183 191 162 158 176 175 181 195 210 187 138 115 129 141 167 193 218 225 222 214 215 212 160 165 201 156 142 158 238 309 335 284 269 260 256 250 242 240 238 232 228 229 231 232 229 225 227 227 222
162 161 162 162 163 164 164 161 159 160 164 170 187 206 163 141 141 144 139 105 135 121 130 169 186 173 138 137 170 204 180 162 170 162 166 177 175 178 182 188 185 161 177 192 191 194 188 133 358 137 153 169 173 182 197 210 214 220 225 228 205 159 172 41 124 144 154 218 272 302 283 271 249 241 243 234 226 230 223 217 224 223 221 228 243 252 237 225
161 161 163 162 164 165 161 159 160 165 169 175 194 214 184 151 155 159 141 119 147 125 118 175 202 179 151 137 171 190 154 139 157 153 166 187 171 160 181 188 187 182 184 189 196 206 189 33 283 171 164 183 182 185 201 209 212 212 217 230 242 173 155 101 129 154 191 212 205 244 257 267 232 225 234 214 188 224 217 216 229 223 209 210 225 236 232 227
161 161 162 164 165 163 159 159 165 164 165 184 202 212 198 168 168 180 158 130 163 149 147 170 180 173 160 155 165 162 160 164 96 134 161 195 195 160 173 166 200 198 179 174 198 216 121 72 274 163 160 176 188 202 200 202 220 215 205 201 137 159 151 136 161 181 228 221 135 218 244 260 224 213 216 198 212 232 217 218 232 227 211 203 212 223 220 217
162 162 163 165 165 162 159 156 161 162 168 194 201 207 204 186 181 211 174 149 178 159 145 161 186 176 165 164 166 164 167 148 105 143 168 184 190 166 186 175 173 185 159 148 189 175 120 141 173 160 162 167 190 212 186 193 224 214 32 193 156 161 167 160 181 205 236 81 112 212 240 265 263 228 160 165 227 243 229 229 229 220 213 204 204 212 208 208
162 162 163 166 166 163 156 148 157 166 177 184 195 207 202 191 195 241 178 166 166 141 147 151 148 162 150 158 176 188 132 134 143 170 157 149 178 194 210 196 184 157 135 166 190 169 109 158 169 159 169 183 193 229 159 188 219 189 29 220 149 159 177 172 190 209 234 266 209 192 185 241 257 231 150 163 236 246 238 235 225 208 200 192 187 191 192 203
162 162 163 165 165 163 152 153 161 172 171 173 193 199 189 186 206 217 195 182 148 121 149 148 143 158 150 162 182 192 142 151 166 149 136 140 185 235 233 206 174 136 99 69 165 94 46 175 183 163 178 184 135 27 19 200 201 152 149 108 97 117 151 168 200 193 177 244 231 179 178 235 263 231 191 183 230 240 237 234 210 179 164 157 160 164 170 196
161 162 163 164 164 159 150 156 167 174 172 175 184 180 171 175 199 184 196 189 149 137 138 149 166 166 161 169 180 183 170 161 117 131 149 167 169 177 329 174 148 130 109 62 79 67 58 102 305 135 185 165 104 62 17 10 119 142 149 118 106 125 140 168 206 195 204 232 226 148 174 251 275 239 205 194 220 240 235 214 154 145 143 140 139 132 134 162
161 163 164 164 163 157 150 158 175 178 177 173 167 166 163 173 204 186 178 150 135 141 145 156 166 165 170 176 174 179 175 139 137 150 158 167 166 168 158 152 145 132 156 145 100 97 109 125 176 71 20 194 118 88 40 26 147 151 157 142 130 132 150 181 184 197 226 230 179 86 328 244 241 234 193 182 24 60 245 222 160 159 151 137 132 119 97 59
162 163 163 163 160 156 157 169 178 180 178 165 157 164 169 157 203 209 159 145 154 174 178 167 166 169 176 177 167 171 166 142 160 164 160 168 173 176 179 182 170 160 185 180 152 132 119 119 132 83 311 237 167 117 77 49 205 202 176 163 166 166 172 199 190 196 225 216 94 83 302 243 245 247 247 271 280 183 180 222 163 157 145 129 121 101 60 11
163 162 162 164 162 160 168 176 177 177 172 161 159 187 180 158 195 200 165 164 162 158 165 165 166 168 173 174 166 164 159 152 172 172 168 174 176 180 193 195 182 188 201 173 155 151 144 133 151 144 167 222 214 166 140 173 198 200 187 181 194 183 179 202 194 202 221 170 78 239 251 255 261 255 246 255 258 135 138 148 102 136 146 102 59 3 319 310
162 162 162 167 168 169 179 177 176 171 162 163 175 182 178 178 191 183 171 173 145 144 155 156 157 164 173 177 164 159 157 156 172 173 170 174 180 184 195 196 190 198 181 160 163 176 180 179 171 162 143 181 207 222 104 175 183 196 206 207 211 204 203 205 198 208 198 115 105 187 226 235 233 127 218 229 157 105 170 181 127 251 250 304 319 283 264 214
160 161 162 165 171 176 179 177 174 168 160 168 177 171 185 189 184 181 171 151 146 149 148 149 152 162 175 176 162 163 171 169 175 177 174 179 189 186 187 191 192 191 169 164 165 178 188 194 105 102 7 182 187 292 341 176 176 187 347 268 230 236 202 168 161 183 139 80 168 183 244 250 268 301 254 190 150 170 198 191 204 222 198 173 235 224 185 155
157 160 161 164 176 179 174 174 173 169 170 173 169 182 197 189 179 180 157 137 153 149 141 149 158 164 169 168 166 173 210 175 174 178 182 189 197 190 187 186 185 189 185 175 158 169 184 167 46 89 98 63 37 354 335 296 180 173 177 200 220 5 65 133 157 90 76 273 200 167 238 248 269 281 244 159 167 178 168 180 196 193 162 163 194 180 160 146
154 158 162 168 182 181 172 172 171 173 192 190 180 190 191 178 169 154 137 132 144 143 142 154 169 173 170 165 172 175 165 157 174 183 184 189 200 195 191 185 179 188 197 185 178 203 175 129 45 18 104 77 1 330 360 353 55 152 183 181 139 30 9 208 232 168 187 246 216 168 228 236 214 245 169 149 187 188 170 170 173 167 159 175 179 161 151 143
150 150 160 173 182 180 170 169 169 174 213 203 196 197 176 125 113 132 134 133 143 151 156 160 167 182 179 170 173 172 164 163 178 186 180 184 200 191 186 180 174 184 192 180 193 199 152 126 70 7 87 100 105 214 185 169 95 359 252 243 116 205 217 189 217 224 201 228 240 193 216 243 222 217 204 191 194 185 175 162 167 184 181 179 169 155 148 143
141 141 157 174 178 175 164 163 165 171 202 207 204 198 154 102 129 140 140 141 149 160 167 164 161 179 183 174 166 166 173 176 171 177 186 186 190 187 186 178 163 179 178 134 189 166 118 181 136 65 21 110 124 218 198 178 157 143 278 288 329 251 237 193 205 238 223 223 238 210 193 231 217 211 227 227 177 153 173 169 182 190 180 175 159 147 148 145
142 140 146 165 168 162 156 157 160 179 201 212 200 183 127 99 142 149 139 142 154 166 178 171 162 166 172 172 164 163 180 182 170 183 200 181 175 200 199 185 158 159 144 85 167 160 137 264 140 104 7 173 173 210 208 186 174 184 192 184 186 187 350 239 222 234 252 236 237 237 239 232 178 197 225 224 101 97 122 178 193 169 152 144 118 135 147 136
151 139 145 161 160 153 151 155 175 188 204 209 154 137 128 122 146 149 107 82 116 111 206 173 166 166 164 167 166 161 173 180 177 190 194 181 189 212 205 187 157 140 133 132 175 166 164 189 133 138 174 180 163 40 348 296 166 192 202 194 195 180 148 205 214 163 358 262 251 255 260 241 97 65 240 171 84 85 72 33 180 128 110 123 122 152 147 129
155 138 148 161 160 156 155 163 187 189 205 189 133 89 128 139 148 149 118 66 104 67 57 164 163 163 160 166 165 158 164 175 181 190 197 197 200 199 192 178 153 147 151 150 149 131 66 95 110 124 157 164 93 58 48 288 276 270 247 219 210 195 190 213 219 184 172 213 22 336 279 268 97 14 339 70 59 52 50 11 356 66 69 120 136 149 137 120
144 117 134 156 163 165 164 165 180 191 197 162 107 67 113 146 145 145 150 162 148 122 148 148 153 162 163 164 161 159 163 168 183 191 197 197 195 178 148 151 144 152 159 139 136 148 89 112 116 108 90 80 105 109 104 123 257 250 234 222 221 206 199 223 240 200 172 172 172 220 247 247 113 39 342 19 30 14 350 285 296 357 89 149 155 161 152 125
122 96 124 161 173 181 180 176 181 183 172 143 125 114 96 117 138 150 169 172 165 161 160 148 151 165 162 156 160 166 168 169 192 198 196 183 175 32 106 150 146 157 171 164 165 175 175 150 131 124 131 161 171 174 193 183 208 229 218 201 209 200 119 98 227 255 218 191 191 220 246 246 140 80 338 75 77 264 224 189 190 219 194 167 167 170 156 137
125 86 103 165 183 204 203 196 188 169 150 140 142 146 142 103 87 129 158 147 68 153 151 138 144 136 128 142 149 168 176 174 184 191 179 161 156 47 107 164 164 169 169 111 135 156 181 169 155 159 165 178 189 197 200 185 181 211 208 175 197 198 178 178 211 231 225 194 182 215 246 247 85 97 195 112 164 204 191 161 174 219 212 179 174 175 161 152
135 113 128 155 198 235 245 267 189 161 151 151 153 161 161 147 116 4 85 125 73 71 106 110 139 122 131 156 150 167 184 165 71 168 171 153 136 67 83 166 165 153 70 114 133 136 156 197 190 197 196 193 202 208 195 167 153 185 196 188 195 201 196 196 224 223 218 194 183 221 240 246 208 168 196 223 205 204 186 160 172 205 212 196 181 174 160 150
114 135 155 153 173 204 220 238 191 170 164 165 162 165 167 150 138 149 309 174 198 179 93 96 156 152 158 167 162 174 182 154 80 162 167 149 111 77 79 94 106 58 36 142 147 128 123 226 214 218 231 222 208 200 179 165 172 194 198 192 190 192 191 192 215 223 214 194 223 229 227 236 233 190 188 210 204 201 193 180 184 192 194 195 186 177 175 184
64 133 168 164 169 186 195 197 187 172 167 171 165 158 162 153 151 167 180 123 180 195 162 133 187 183 171 166 162 162 165 147 133 166 153 136 129 114 96 75 112 63 20 161 158 125 159 206 213 214 239 243 198 102 159 181 199 208 206 197 187 183 185 193 214 225 214 205 236 238 224 228 234 212 202 202 191 197 196 175 171 180 188 193 188 185 188 191
110 97 138 318 335 161 156 158 166 167 167 171 172 169 170 166 165 166 146 128 168 210 209 183 188 188 174 167 161 151 160 168 175 181 157 137 143 139 131 137 156 152 83 153 175 273 177 196 202 200 231 242 210 116 175 199 209 217 218 209 192 184 189 198 212 221 218 219 235 242 240 239 232 212 212 194 148 162 144 110 137 180 196 197 188 194 200 189
115 92 139 127 98 142 147 147 162 172 173 174 176 179 180 177 170 157 138 151 171 188 206 191 181 180 175 172 170 170 181 183 173 169 155 139 149 170 168 164 150 140 171 159 155 293 219 196 187 181 224 239 205 136 177 208 219 224 220 203 185 184 196 209 218 221 220 226 237 244 251 258 239 201 202 146 95 109 123 155 184 197 204 198 188 202 207 194
72 348 201 135 112 141 157 158 167 174 176 181 183 176 180 185 173 149 131 147 169 175 191 183 164 159 166 178 187 188 187 184 171 166 162 158 171 182 176 161 149 148 171 176 161 176 195 190 168 167 210 229 192 157 160 123 360 262 229 193 181 183 196 209 218 219 214 223 236 241 248 255 236 196 184 134 118 154 177 189 199 207 206 196 193 207 204 194
44 347 323 115 100 130 155 158 171 181 182 188 184 168 173 184 170 149 144 165 11 154 187 170 147 134 154 186 199 182 146 127 117 147 155 150 147 140 112 142 155 154 163 171 168 176 179 176 154 169 204 222 187 151 145 119 105 249 224 199 191 193 205 211 219 223 217 218 228 230 237 245 218 174 185 177 154 172 195 199 203 210 207 203 204 204 192 185